,,PA_Meas_PMT16A,,PR_Meas_QMR101_102,,RH_Meas_QMH101,,SR_Meas_QMS101,,TA_Meas_QMH101,,GenWind,,GenWind,
time,status,PA,status,PR,status,RH,status,SR,status,TA,status,DirAvg,status,SpdAvg,
2010-09-11, 00:00:05,VALID,917.568,VALID,0,VALID,95.773,VALID,0,VALID,19.0008,VALID,360,VALID,0.822656,
2010-09-11, 00:01:05,VALID,917.541,VALID,0,VALID,95.834,VALID,0,VALID,18.9019,VALID,360,VALID,0.599219,
2010-09-11, 00:02:05,VALID,917.559,VALID,0,VALID,95.7958,VALID,0,VALID,18.824,VALID,360,VALID,0.537891,
2010-09-11, 00:03:05,VALID,917.574,VALID,0,VALID,96.0093,VALID,0,VALID,18.8629,VALID,360,VALID,0.546484,
2010-09-11, 00:04:05,VALID,917.587,VALID,0,VALID,96.1313,VALID,0,VALID,18.8824,VALID,360,VALID,0.466406,
2010-09-11, 00:05:05,VALID,917.574,VALID,0,VALID,96.2304,VALID,0,VALID,18.8824,VALID,360,VALID,0.697656,
2010-09-11, 00:06:05,VALID,917.602,VALID,0,VALID,96.3752,VALID,0,VALID,18.9229,VALID,360,VALID,0.78125,
2010-09-11, 00:07:05,VALID,917.584,VALID,0,VALID,96.4057,VALID,0,VALID,18.9019,VALID,360,VALID,0.736328,
2010-09-11, 00:08:05,VALID,917.593,VALID,0,VALID,96.421,VALID,0,VALID,18.9034,VALID,360,VALID,0.827734,
2010-09-11, 00:09:05,VALID,917.553,VALID,0,VALID,96.4515,VALID,0,VALID,18.8629,VALID,360,VALID,0.976172,
2010-09-11, 00:10:05,VALID,917.513,VALID,0,VALID,96.5201,VALID,0,VALID,18.8824,VALID,360,VALID,1.21875,
2010-09-11, 00:11:05,VALID,917.501,VALID,0,VALID,96.4667,VALID,0,VALID,18.8824,VALID,360,VALID,0.936719,
2010-09-11, 00:12:05,VALID,917.465,VALID,0,VALID,96.4438,VALID,0,VALID,18.8434,VALID,360,VALID,0.98125,
2010-09-11, 00:13:05,VALID,917.51,VALID,0,VALID,96.5048,VALID,0,VALID,18.8434,VALID,360,VALID,1.12305,
2010-09-11, 00:14:05,VALID,917.445,VALID,0,VALID,96.5658,VALID,0.107441,VALID,18.8824,VALID,360,VALID,1.27109,
2010-09-11, 00:15:05,VALID,917.457,VALID,0,VALID,96.5887,VALID,0,VALID,18.9019,VALID,360,VALID,1.25977,
2010-09-11, 00:16:05,VALID,917.448,VALID,0,VALID,96.6115,VALID,0,VALID,18.9409,VALID,360,VALID,1.23359,
2010-09-11, 00:17:05,VALID,917.405,VALID,0,VALID,96.5963,VALID,0.107441,VALID,18.9619,VALID,360,VALID,1.0832,
2010-09-11, 00:18:05,VALID,917.396,VALID,0,VALID,96.5734,VALID,0.107441,VALID,18.9604,VALID,360,VALID,0.764063,
2010-09-11, 00:19:05,VALID,917.404,VALID,0,VALID,96.5201,VALID,0.107441,VALID,18.9799,VALID,360,VALID,0.659766,
2010-09-11, 00:20:05,VALID,917.381,VALID,0,VALID,96.4743,VALID,0,VALID,19.0008,VALID,360,VALID,0.965625,
2010-09-11, 00:21:05,VALID,917.323,VALID,0,VALID,96.4286,VALID,0,VALID,18.9814,VALID,360,VALID,1.28594,
2010-09-11, 00:22:05,VALID,917.344,VALID,0,VALID,96.3371,VALID,0,VALID,18.9214,VALID,360,VALID,1.00586,
2010-09-11, 00:23:05,VALID,917.32,VALID,0,VALID,96.3524,VALID,0.107441,VALID,18.9214,VALID,360,VALID,0.963281,
2010-09-11, 00:24:05,VALID,917.29,VALID,0,VALID,96.2837,VALID,0,VALID,18.8839,VALID,360,VALID,0.880469,
2010-09-11, 00:25:05,VALID,917.286,VALID,0,VALID,96.2151,VALID,0,VALID,18.824,VALID,360,VALID,0.971094,
2010-09-11, 00:26:05,VALID,917.278,VALID,0,VALID,96.2533,VALID,0,VALID,18.8254,VALID,360,VALID,1.21367,
2010-09-11, 00:27:05,VALID,917.264,VALID,0,VALID,96.299,VALID,0,VALID,18.824,VALID,360,VALID,1.41445,
2010-09-11, 00:28:05,VALID,917.252,VALID,0,VALID,96.2685,VALID,0,VALID,18.8045,VALID,360,VALID,1.22344,
2010-09-11, 00:29:05,VALID,917.253,VALID,0,VALID,96.2304,VALID,0,VALID,18.785,VALID,1,VALID,1.14102,
2010-09-11, 00:30:05,VALID,917.241,VALID,0,VALID,96.2761,VALID,0,VALID,18.8045,VALID,1,VALID,0.964844,
2010-09-11, 00:31:05,VALID,917.236,VALID,0,VALID,96.1923,VALID,0,VALID,18.785,VALID,1,VALID,0.498437,
2010-09-11, 00:32:05,VALID,917.208,VALID,0,VALID,96.1541,VALID,0,VALID,18.7474,VALID,1,VALID,0.363281,
2010-09-11, 00:33:05,VALID,917.18,VALID,0,VALID,96.1846,VALID,0.107441,VALID,18.7655,VALID,1,VALID,1.24414,
2010-09-11, 00:34:05,VALID,917.142,VALID,0,VALID,96.1618,VALID,0,VALID,18.7279,VALID,1,VALID,1.04648,
2010-09-11, 00:35:05,VALID,917.171,VALID,0,VALID,96.2456,VALID,0,VALID,18.6875,VALID,1,VALID,1.12578,
2010-09-11, 00:36:05,VALID,917.157,VALID,0,VALID,96.3142,VALID,0,VALID,18.6875,VALID,1,VALID,0.928906,
2010-09-11, 00:37:05,VALID,917.134,VALID,0,VALID,96.3447,VALID,0,VALID,18.6875,VALID,1,VALID,1.14336,
2010-09-11, 00:38:05,VALID,917.119,VALID,0,VALID,96.3219,VALID,0,VALID,18.668,VALID,1,VALID,1.11914,
2010-09-11, 00:39:05,VALID,917.139,VALID,0,VALID,96.3371,VALID,0,VALID,18.6889,VALID,1,VALID,1.04375,
2010-09-11, 00:40:05,VALID,917.122,VALID,0,VALID,96.3447,VALID,0,VALID,18.7279,VALID,1,VALID,1.07031,
2010-09-11, 00:41:05,VALID,917.14,VALID,0,VALID,96.2685,VALID,0,VALID,18.7864,VALID,1,VALID,1.21992,
2010-09-11, 00:42:05,VALID,917.131,VALID,0,VALID,96.1465,VALID,0,VALID,18.824,VALID,1,VALID,1.20625,
2010-09-11, 00:43:05,VALID,917.114,VALID,0,VALID,95.9864,VALID,0,VALID,18.8839,VALID,1,VALID,1.24883,
2010-09-11, 00:44:05,VALID,917.073,VALID,0,VALID,95.7196,VALID,0,VALID,18.9229,VALID,1,VALID,0.980859,
2010-09-11, 00:45:05,VALID,917.037,VALID,0,VALID,95.4452,VALID,0.107441,VALID,18.9604,VALID,113,VALID,1.16367,
2010-09-11, 00:46:05,VALID,917.049,VALID,0,VALID,95.064,VALID,0,VALID,18.9799,VALID,157,VALID,0.901172,
2010-09-11, 00:47:05,VALID,917.03,VALID,0,VALID,94.5685,VALID,0.107441,VALID,19.0189,VALID,123,VALID,0.874219,
2010-09-11, 00:48:05,VALID,917.025,VALID,0,VALID,94.0272,VALID,0,VALID,19.0593,VALID,123,VALID,1.46563,
2010-09-11, 00:49:05,VALID,917.006,VALID,0,VALID,94.3093,VALID,0.107441,VALID,19.0774,VALID,123,VALID,1.6082,
2010-09-11, 00:50:05,VALID,916.974,VALID,0,VALID,94.5227,VALID,0,VALID,19.1359,VALID,111,VALID,1.07031,
2010-09-11, 00:51:05,VALID,916.954,VALID,0,VALID,94.4084,VALID,0.107441,VALID,19.1359,VALID,134,VALID,1.19687,
2010-09-11, 00:52:05,VALID,916.94,VALID,0,VALID,94.1949,VALID,0,VALID,19.1359,VALID,132,VALID,1.22109,
2010-09-11, 00:53:05,VALID,916.918,VALID,0,VALID,94.1339,VALID,0,VALID,19.1164,VALID,117,VALID,0.988281,
2010-09-11, 00:54:05,VALID,916.877,VALID,0,VALID,94.3093,VALID,0.107441,VALID,19.1359,VALID,117,VALID,0.867969,
2010-09-11, 00:55:05,VALID,916.925,VALID,0,VALID,93.9815,VALID,0.107441,VALID,19.0983,VALID,117,VALID,1.07148,
2010-09-11, 00:56:05,VALID,916.944,VALID,0,VALID,94.3321,VALID,0,VALID,19.0384,VALID,117,VALID,1.38477,
2010-09-11, 00:57:05,VALID,916.957,VALID,0,VALID,94.5761,VALID,0.107441,VALID,18.9799,VALID,117,VALID,1.00078,
2010-09-11, 00:58:05,VALID,916.957,VALID,0,VALID,94.8734,VALID,0.107441,VALID,18.9604,VALID,89,VALID,1.13984,
2010-09-11, 00:59:05,VALID,916.951,VALID,0,VALID,95.0869,VALID,0,VALID,18.9409,VALID,89,VALID,1.02539,
2010-09-11, 01:00:05,VALID,916.927,VALID,0,VALID,95.2622,VALID,0.107441,VALID,18.9409,VALID,89,VALID,1.14102,
2010-09-11, 01:01:05,VALID,916.902,VALID,0,VALID,95.3156,VALID,0,VALID,18.9424,VALID,89,VALID,1.23086,
2010-09-11, 01:02:05,VALID,916.913,VALID,0,VALID,95.4071,VALID,0,VALID,18.9424,VALID,89,VALID,1.04141,
2010-09-11, 01:03:05,VALID,916.88,VALID,0,VALID,95.4375,VALID,0,VALID,18.9409,VALID,89,VALID,0.946094,
2010-09-11, 01:04:05,VALID,916.898,VALID,0,VALID,95.5062,VALID,0.107441,VALID,18.9799,VALID,89,VALID,1.23008,
2010-09-11, 01:05:05,VALID,916.887,VALID,0,VALID,95.5138,VALID,0,VALID,18.9994,VALID,89,VALID,0.972656,
2010-09-11, 01:06:05,VALID,916.85,VALID,0,VALID,95.4147,VALID,0.107441,VALID,19.0189,VALID,89,VALID,0.532031,
2010-09-11, 01:07:05,VALID,916.893,VALID,0,VALID,95.2393,VALID,0.107441,VALID,19.0189,VALID,89,VALID,0.420312,
2010-09-11, 01:08:05,VALID,916.868,VALID,0,VALID,95.0488,VALID,0,VALID,19.0398,VALID,89,VALID,0.525,
2010-09-11, 01:09:05,VALID,916.838,VALID,0,VALID,94.8963,VALID,0,VALID,19.0189,VALID,89,VALID,0.440234,
2010-09-11, 01:10:05,VALID,916.832,VALID,0,VALID,94.7896,VALID,0.107441,VALID,19.0189,VALID,89,VALID,0.542969,
2010-09-11, 01:11:05,VALID,916.793,VALID,0,VALID,94.6981,VALID,0,VALID,19.0398,VALID,89,VALID,0.599219,
2010-09-11, 01:12:05,VALID,916.803,VALID,0,VALID,94.6066,VALID,0,VALID,19.0203,VALID,89,VALID,0.284375,
2010-09-11, 01:13:05,VALID,916.812,VALID,0,VALID,94.7438,VALID,0,VALID,19.0398,VALID,89,VALID,0.464063,
2010-09-11, 01:14:05,VALID,916.811,VALID,0,VALID,94.8277,VALID,0,VALID,19.0593,VALID,89,VALID,0.209375,
2010-09-11, 01:15:05,VALID,916.799,VALID,0,VALID,94.599,VALID,0,VALID,19.0189,VALID,89,VALID,0,
2010-09-11, 01:16:05,VALID,916.78,VALID,0,VALID,94.2864,VALID,0,VALID,18.9994,VALID,89,VALID,0.119922,
2010-09-11, 01:17:05,VALID,916.785,VALID,0,VALID,91.7935,VALID,0,VALID,18.8644,VALID,89,VALID,0.0246094,
2010-09-11, 01:18:05,VALID,916.761,VALID,0,VALID,91.4734,VALID,0,VALID,18.707,VALID,89,VALID,0.491406,
2010-09-11, 01:19:05,VALID,916.745,VALID,0,VALID,92.5864,VALID,0,VALID,18.5525,VALID,89,VALID,0.586719,
2010-09-11, 01:20:05,VALID,916.733,VALID,0,VALID,93.0667,VALID,0.107441,VALID,18.377,VALID,89,VALID,0.852734,
2010-09-11, 01:21:05,VALID,916.709,VALID,0,VALID,94.1949,VALID,0,VALID,18.2782,VALID,89,VALID,0.875391,
2010-09-11, 01:22:05,VALID,916.722,VALID,0,VALID,94.8582,VALID,0,VALID,18.2406,VALID,89,VALID,1.01719,
2010-09-11, 01:23:05,VALID,916.682,VALID,0,VALID,95.3156,VALID,0,VALID,18.2016,VALID,89,VALID,0.978516,
2010-09-11, 01:24:05,VALID,916.706,VALID,0,VALID,95.9864,VALID,0,VALID,18.299,VALID,89,VALID,0.952734,
2010-09-11, 01:25:05,VALID,916.746,VALID,0,VALID,96.421,VALID,0,VALID,18.4355,VALID,89,VALID,0.950391,
2010-09-11, 01:26:05,VALID,916.746,VALID,0,VALID,96.4972,VALID,0,VALID,18.455,VALID,89,VALID,0.885547,
2010-09-11, 01:27:05,VALID,916.689,VALID,0,VALID,96.5201,VALID,0,VALID,18.494,VALID,89,VALID,0.997656,
2010-09-11, 01:28:05,VALID,916.716,VALID,0,VALID,96.5506,VALID,0.107441,VALID,18.494,VALID,89,VALID,1.02148,
2010-09-11, 01:29:05,VALID,916.677,VALID,0,VALID,96.5963,VALID,0,VALID,18.533,VALID,109,VALID,0.967578,
2010-09-11, 01:30:05,VALID,916.698,VALID,0,VALID,96.5277,VALID,0,VALID,18.5121,VALID,109,VALID,0.80625,
2010-09-11, 01:31:05,VALID,916.677,VALID,0,VALID,96.4362,VALID,0,VALID,18.5135,VALID,109,VALID,0.903125,
2010-09-11, 01:32:05,VALID,916.671,VALID,0,VALID,96.3905,VALID,0,VALID,18.5135,VALID,109,VALID,0.871484,
2010-09-11, 01:33:05,VALID,916.641,VALID,0,VALID,96.36,VALID,0,VALID,18.4926,VALID,109,VALID,0.886719,
2010-09-11, 01:34:05,VALID,916.656,VALID,0,VALID,96.3676,VALID,0,VALID,18.533,VALID,109,VALID,1.14023,
2010-09-11, 01:35:05,VALID,916.627,VALID,0,VALID,96.3752,VALID,0,VALID,18.5511,VALID,109,VALID,0.871875,
2010-09-11, 01:36:05,VALID,916.625,VALID,0,VALID,96.2914,VALID,0,VALID,18.5525,VALID,109,VALID,0.682031,
2010-09-11, 01:37:05,VALID,916.623,VALID,0,VALID,96.3142,VALID,0,VALID,18.572,VALID,110,VALID,0.935156,
2010-09-11, 01:38:05,VALID,916.619,VALID,0,VALID,96.1999,VALID,0,VALID,18.5525,VALID,110,VALID,1.05703,
2010-09-11, 01:39:05,VALID,916.612,VALID,0,VALID,96.2075,VALID,0,VALID,18.572,VALID,110,VALID,0.928906,
2010-09-11, 01:40:05,VALID,916.616,VALID,0,VALID,96.1999,VALID,0,VALID,18.5914,VALID,110,VALID,0.925391,
2010-09-11, 01:41:05,VALID,916.638,VALID,0,VALID,96.1541,VALID,0,VALID,18.5914,VALID,110,VALID,1.13125,
2010-09-11, 01:42:05,VALID,916.653,VALID,0,VALID,96.1008,VALID,0,VALID,18.572,VALID,110,VALID,0.857031,
2010-09-11, 01:43:05,VALID,916.639,VALID,0,VALID,96.0855,VALID,0,VALID,18.59,VALID,134,VALID,0.398047,
2010-09-11, 01:44:05,VALID,916.619,VALID,0,VALID,96.0779,VALID,0,VALID,18.6304,VALID,134,VALID,1.06172,
2010-09-11, 01:45:05,VALID,916.597,VALID,0,VALID,96.0093,VALID,0,VALID,18.6499,VALID,134,VALID,1.06016,
2010-09-11, 01:46:05,VALID,916.584,VALID,0,VALID,95.7882,VALID,0,VALID,18.59,VALID,134,VALID,0.784375,
2010-09-11, 01:47:05,VALID,916.567,VALID,0,VALID,95.6357,VALID,0,VALID,18.5914,VALID,134,VALID,0.879687,
2010-09-11, 01:48:05,VALID,916.576,VALID,0,VALID,95.5367,VALID,0,VALID,18.572,VALID,134,VALID,0.889453,
2010-09-11, 01:49:05,VALID,916.581,VALID,0,VALID,95.59,VALID,0,VALID,18.572,VALID,134,VALID,0.830859,
2010-09-11, 01:50:05,VALID,916.584,VALID,0,VALID,95.6357,VALID,0,VALID,18.5734,VALID,133,VALID,1.11133,
2010-09-11, 01:51:05,VALID,916.526,VALID,0,VALID,95.5824,VALID,0,VALID,18.5525,VALID,133,VALID,0.975391,
2010-09-11, 01:52:05,VALID,916.552,VALID,0,VALID,95.6053,VALID,0,VALID,18.5525,VALID,133,VALID,1.15078,
2010-09-11, 01:53:05,VALID,916.561,VALID,0,VALID,95.5824,VALID,0,VALID,18.533,VALID,133,VALID,0.859766,
2010-09-11, 01:54:05,VALID,916.515,VALID,0,VALID,95.59,VALID,0,VALID,18.5135,VALID,133,VALID,0.921484,
2010-09-11, 01:55:05,VALID,916.528,VALID,0,VALID,95.6586,VALID,0,VALID,18.5135,VALID,102,VALID,0.792578,
2010-09-11, 01:56:05,VALID,916.528,VALID,0,VALID,95.5748,VALID,0,VALID,18.5149,VALID,100,VALID,0.898828,
2010-09-11, 01:57:05,VALID,916.527,VALID,0,VALID,95.5671,VALID,0,VALID,18.4745,VALID,100,VALID,1.13164,
2010-09-11, 01:58:05,VALID,916.518,VALID,0,VALID,95.5367,VALID,0,VALID,18.455,VALID,100,VALID,0.946484,
2010-09-11, 01:59:05,VALID,916.518,VALID,0,VALID,95.5671,VALID,0,VALID,18.455,VALID,100,VALID,0.752734,
2010-09-11, 02:00:05,VALID,916.529,VALID,0,VALID,95.5976,VALID,0,VALID,18.4355,VALID,100,VALID,1.0293,
2010-09-11, 02:01:05,VALID,916.533,VALID,0,VALID,95.7349,VALID,0,VALID,18.455,VALID,100,VALID,1.08555,
2010-09-11, 02:02:05,VALID,916.55,VALID,0,VALID,95.834,VALID,0,VALID,18.4745,VALID,100,VALID,0.849609,
2010-09-11, 02:03:05,VALID,916.546,VALID,0,VALID,95.9483,VALID,0,VALID,18.5135,VALID,100,VALID,0.934766,
2010-09-11, 02:04:05,VALID,916.576,VALID,0,VALID,95.9407,VALID,0,VALID,18.533,VALID,100,VALID,0.967578,
2010-09-11, 02:05:05,VALID,916.59,VALID,0,VALID,95.9864,VALID,0,VALID,18.5929,VALID,100,VALID,0.939844,
2010-09-11, 02:06:05,VALID,916.607,VALID,0,VALID,95.9407,VALID,0,VALID,18.6109,VALID,100,VALID,1.26875,
2010-09-11, 02:07:05,VALID,916.618,VALID,0,VALID,95.8187,VALID,0,VALID,18.6304,VALID,100,VALID,1.00664,
2010-09-11, 02:08:05,VALID,916.613,VALID,0,VALID,95.6434,VALID,0,VALID,18.6304,VALID,100,VALID,0.963672,
2010-09-11, 02:09:05,VALID,916.604,VALID,0,VALID,95.529,VALID,0,VALID,18.6109,VALID,100,VALID,1.08945,
2010-09-11, 02:10:05,VALID,916.601,VALID,0,VALID,95.3994,VALID,0,VALID,18.5914,VALID,100,VALID,1.11328,
2010-09-11, 02:11:05,VALID,916.591,VALID,0,VALID,95.2698,VALID,0,VALID,18.5525,VALID,100,VALID,0.928906,
2010-09-11, 02:12:05,VALID,916.583,VALID,0,VALID,95.3689,VALID,0,VALID,18.5525,VALID,100,VALID,1.02891,
2010-09-11, 02:13:05,VALID,916.57,VALID,0,VALID,95.3766,VALID,0,VALID,18.5135,VALID,100,VALID,0.903906,
2010-09-11, 02:14:05,VALID,916.581,VALID,0,VALID,95.4147,VALID,0,VALID,18.494,VALID,100,VALID,0.717578,
2010-09-11, 02:15:04,VALID,916.625,VALID,0,VALID,95.3689,VALID,0,VALID,18.4759,VALID,100,VALID,0.713281,
2010-09-11, 02:16:04,VALID,916.616,VALID,0,VALID,95.5367,VALID,0,VALID,18.4745,VALID,100,VALID,0.807813,
2010-09-11, 02:17:04,VALID,916.58,VALID,0,VALID,95.5748,VALID,0,VALID,18.494,VALID,100,VALID,0.923047,
2010-09-11, 02:18:04,VALID,916.626,VALID,0,VALID,95.5976,VALID,0,VALID,18.494,VALID,100,VALID,0.607422,
2010-09-11, 02:19:04,VALID,916.613,VALID,0,VALID,95.4528,VALID,0,VALID,18.4745,VALID,106,VALID,0.700781,
2010-09-11, 02:20:04,VALID,916.635,VALID,0,VALID,95.3766,VALID,0,VALID,18.455,VALID,109,VALID,0.622266,
2010-09-11, 02:21:04,VALID,916.653,VALID,0,VALID,95.4452,VALID,0,VALID,18.4341,VALID,109,VALID,0.769922,
2010-09-11, 02:22:04,VALID,916.621,VALID,0,VALID,95.651,VALID,0,VALID,18.494,VALID,109,VALID,0.886328,
2010-09-11, 02:23:04,VALID,916.659,VALID,0,VALID,95.4833,VALID,0,VALID,18.455,VALID,110,VALID,0.797266,
2010-09-11, 02:24:04,VALID,916.654,VALID,0,VALID,95.4299,VALID,0,VALID,18.4355,VALID,135,VALID,1.05898,
2010-09-11, 02:25:04,VALID,916.663,VALID,0,VALID,95.4147,VALID,0,VALID,18.4355,VALID,134,VALID,0.665234,
2010-09-11, 02:26:04,VALID,916.688,VALID,0,VALID,95.3461,VALID,0,VALID,18.3965,VALID,135,VALID,0.671484,
2010-09-11, 02:27:04,VALID,916.693,VALID,0,VALID,95.2622,VALID,0,VALID,18.3965,VALID,135,VALID,0.613281,
2010-09-11, 02:28:04,VALID,916.708,VALID,0,VALID,95.3537,VALID,0,VALID,18.3965,VALID,135,VALID,0.496094,
2010-09-11, 02:29:04,VALID,916.729,VALID,0,VALID,95.3842,VALID,0,VALID,18.4355,VALID,135,VALID,0.507813,
2010-09-11, 02:30:04,VALID,916.705,VALID,0,VALID,95.3461,VALID,0,VALID,18.4355,VALID,135,VALID,0.316406,
2010-09-11, 02:31:04,VALID,916.76,VALID,0,VALID,95.1783,VALID,0,VALID,18.377,VALID,135,VALID,0.447266,
2010-09-11, 02:32:04,VALID,916.709,VALID,0,VALID,95.1631,VALID,0,VALID,18.3965,VALID,135,VALID,0.687891,
2010-09-11, 02:33:04,VALID,916.697,VALID,0,VALID,95.1631,VALID,0,VALID,18.3589,VALID,135,VALID,0.566797,
2010-09-11, 02:34:04,VALID,916.726,VALID,0,VALID,95.2775,VALID,0,VALID,18.338,VALID,135,VALID,0.628516,
2010-09-11, 02:35:04,VALID,916.666,VALID,0,VALID,95.4833,VALID,0,VALID,18.3575,VALID,135,VALID,0.411328,
2010-09-11, 02:36:04,VALID,916.677,VALID,0,VALID,95.6967,VALID,0,VALID,18.377,VALID,135,VALID,0.389844,
2010-09-11, 02:37:04,VALID,916.671,VALID,0,VALID,95.5748,VALID,0,VALID,18.3575,VALID,135,VALID,0.460938,
2010-09-11, 02:38:04,VALID,916.638,VALID,0,VALID,95.3156,VALID,0,VALID,18.2796,VALID,135,VALID,0.100391,
2010-09-11, 02:39:04,VALID,916.635,VALID,0,VALID,95.1021,VALID,0,VALID,18.2406,VALID,135,VALID,0.0230469,
2010-09-11, 02:40:04,VALID,916.677,VALID,0,VALID,95.3689,VALID,0,VALID,18.3199,VALID,134,VALID,0.536719,
2010-09-11, 02:41:04,VALID,916.624,VALID,0,VALID,95.5214,VALID,0,VALID,18.299,VALID,135,VALID,0.476172,
2010-09-11, 02:42:04,VALID,916.633,VALID,0,VALID,95.3766,VALID,0,VALID,18.2601,VALID,135,VALID,0.380078,
2010-09-11, 02:43:04,VALID,916.626,VALID,0,VALID,95.0945,VALID,0,VALID,18.2406,VALID,135,VALID,0.354297,
2010-09-11, 02:44:04,VALID,916.61,VALID,0,VALID,94.538,VALID,0,VALID,18.1626,VALID,135,VALID,0.350391,
2010-09-11, 02:45:04,VALID,916.592,VALID,0,VALID,93.5546,VALID,0,VALID,18.047,VALID,135,VALID,0.514063,
2010-09-11, 02:46:04,VALID,916.589,VALID,0,VALID,94.416,VALID,0,VALID,17.9872,VALID,135,VALID,0.419141,
2010-09-11, 02:47:04,VALID,916.563,VALID,0,VALID,95.2317,VALID,0,VALID,18.0067,VALID,135,VALID,0.411719,
2010-09-11, 02:48:04,VALID,916.564,VALID,0,VALID,95.7044,VALID,0,VALID,18.0457,VALID,135,VALID,0.562891,
2010-09-11, 02:49:04,VALID,916.576,VALID,0,VALID,96.0855,VALID,0,VALID,18.1236,VALID,135,VALID,0.719531,
2010-09-11, 02:50:04,VALID,916.568,VALID,0,VALID,96.1008,VALID,0,VALID,18.1055,VALID,135,VALID,0.0449219,
2010-09-11, 02:51:04,VALID,916.539,VALID,0,VALID,95.9102,VALID,0,VALID,18.0457,VALID,135,VALID,0,
2010-09-11, 02:52:04,VALID,916.521,VALID,0,VALID,95.9331,VALID,0,VALID,18.0457,VALID,135,VALID,0.351172,
2010-09-11, 02:53:04,VALID,916.486,VALID,0,VALID,96.1389,VALID,0,VALID,18.1041,VALID,135,VALID,0.303906,
2010-09-11, 02:54:04,VALID,916.512,VALID,0,VALID,95.834,VALID,0,VALID,18.0067,VALID,135,VALID,0.361719,
2010-09-11, 02:55:04,VALID,916.5,VALID,0,VALID,95.4604,VALID,0,VALID,17.9496,VALID,135,VALID,0.817578,
2010-09-11, 02:56:04,VALID,916.498,VALID,0,VALID,95.6357,VALID,0,VALID,17.9872,VALID,135,VALID,0.519922,
2010-09-11, 02:57:04,VALID,916.483,VALID,0,VALID,95.7349,VALID,0,VALID,17.9872,VALID,135,VALID,0.411719,
2010-09-11, 02:58:04,VALID,916.455,VALID,0,VALID,95.7958,VALID,0,VALID,18.0067,VALID,135,VALID,0.705859,
2010-09-11, 02:59:04,VALID,916.469,VALID,0,VALID,96.0093,VALID,0,VALID,18.0651,VALID,135,VALID,0.616797,
2010-09-11, 03:00:04,VALID,916.424,VALID,0,VALID,96.0855,VALID,0,VALID,18.1041,VALID,135,VALID,0.687109,
2010-09-11, 03:01:04,VALID,916.398,VALID,0,VALID,95.8111,VALID,0,VALID,18.0067,VALID,135,VALID,0.527344,
2010-09-11, 03:02:04,VALID,916.392,VALID,0,VALID,95.4985,VALID,0,VALID,17.9092,VALID,135,VALID,0.492188,
2010-09-11, 03:03:04,VALID,916.374,VALID,0,VALID,95.4909,VALID,0.107441,VALID,17.8897,VALID,135,VALID,0.400781,
2010-09-11, 03:04:04,VALID,916.367,VALID,0,VALID,95.6815,VALID,0,VALID,17.9287,VALID,135,VALID,0.223438,
2010-09-11, 03:05:04,VALID,916.358,VALID,0,VALID,95.7654,VALID,0,VALID,17.9287,VALID,135,VALID,0.257813,
2010-09-11, 03:06:04,VALID,916.313,VALID,0,VALID,95.7196,VALID,0,VALID,17.8897,VALID,135,VALID,0.25,
2010-09-11, 03:07:04,VALID,916.307,VALID,0,VALID,95.5671,VALID,0,VALID,17.8897,VALID,135,VALID,0.0171875,
2010-09-11, 03:08:04,VALID,916.301,VALID,0,VALID,95.2393,VALID,0,VALID,17.8118,VALID,135,VALID,0.00585938,
2010-09-11, 03:09:04,VALID,916.283,VALID,0,VALID,94.9039,VALID,0,VALID,17.8131,VALID,135,VALID,0,
2010-09-11, 03:10:04,VALID,916.252,VALID,0,VALID,94.5913,VALID,0,VALID,17.7936,VALID,135,VALID,0,
2010-09-11, 03:11:04,VALID,916.23,VALID,0,VALID,94.9344,VALID,0,VALID,17.8118,VALID,135,VALID,0,
2010-09-11, 03:12:04,VALID,916.234,VALID,0,VALID,95.4299,VALID,0,VALID,17.8897,VALID,135,VALID,0,
2010-09-11, 03:13:04,VALID,916.231,VALID,0,VALID,95.7044,VALID,0,VALID,17.9092,VALID,135,VALID,0,
2010-09-11, 03:14:04,VALID,916.242,VALID,0,VALID,95.6662,VALID,0,VALID,17.8508,VALID,135,VALID,0,
2010-09-11, 03:15:04,VALID,916.237,VALID,0,VALID,95.5748,VALID,0,VALID,17.8118,VALID,135,VALID,0,
2010-09-11, 03:16:04,VALID,916.226,VALID,0,VALID,95.468,VALID,0,VALID,17.7728,VALID,135,VALID,0,
2010-09-11, 03:17:04,VALID,916.209,VALID,0,VALID,95.6205,VALID,0,VALID,17.8326,VALID,135,VALID,0,
2010-09-11, 03:18:04,VALID,916.196,VALID,0,VALID,95.3689,VALID,0,VALID,17.7533,VALID,135,VALID,0,
2010-09-11, 03:19:04,VALID,916.204,VALID,0,VALID,95.2546,VALID,0,VALID,17.7143,VALID,135,VALID,0,
2010-09-11, 03:20:04,VALID,916.193,VALID,0,VALID,95.1631,VALID,0,VALID,17.6754,VALID,135,VALID,0,
2010-09-11, 03:21:04,VALID,916.188,VALID,0,VALID,95.4757,VALID,0,VALID,17.7143,VALID,135,VALID,0,
2010-09-11, 03:22:04,VALID,916.173,VALID,0,VALID,95.2698,VALID,0,VALID,17.6754,VALID,135,VALID,0,
2010-09-11, 03:23:04,VALID,916.188,VALID,0,VALID,95.651,VALID,0,VALID,17.7143,VALID,135,VALID,0,
2010-09-11, 03:24:04,VALID,916.176,VALID,0,VALID,95.9788,VALID,0,VALID,17.7923,VALID,135,VALID,0,
2010-09-11, 03:25:04,VALID,916.185,VALID,0,VALID,95.9178,VALID,0.107441,VALID,17.7923,VALID,135,VALID,0,
2010-09-11, 03:26:04,VALID,916.141,VALID,0,VALID,95.8263,VALID,0,VALID,17.7728,VALID,135,VALID,0,
2010-09-11, 03:27:04,VALID,916.141,VALID,0,VALID,95.773,VALID,0,VALID,17.7936,VALID,135,VALID,0,
2010-09-11, 03:28:04,VALID,916.117,VALID,0,VALID,95.6205,VALID,0,VALID,17.7547,VALID,135,VALID,0,
2010-09-11, 03:29:04,VALID,916.111,VALID,0,VALID,95.2165,VALID,0,VALID,17.6559,VALID,135,VALID,0,
2010-09-11, 03:30:04,VALID,916.076,VALID,0,VALID,95.3537,VALID,0,VALID,17.6169,VALID,135,VALID,0,
2010-09-11, 03:31:04,VALID,916.108,VALID,0,VALID,95.4452,VALID,0,VALID,17.5779,VALID,135,VALID,0,
2010-09-11, 03:32:04,VALID,916.09,VALID,0,VALID,95.3461,VALID,0,VALID,17.5208,VALID,135,VALID,0,
2010-09-11, 03:33:04,VALID,916.107,VALID,0,VALID,95.59,VALID,0,VALID,17.5,VALID,135,VALID,0,
2010-09-11, 03:34:04,VALID,916.096,VALID,0,VALID,95.8111,VALID,0,VALID,17.5208,VALID,135,VALID,0,
2010-09-11, 03:35:04,VALID,916.115,VALID,0,VALID,96.0855,VALID,0,VALID,17.5792,VALID,135,VALID,0,
2010-09-11, 03:36:04,VALID,916.116,VALID,0,VALID,96.3371,VALID,0,VALID,17.6377,VALID,135,VALID,0,
2010-09-11, 03:37:04,VALID,916.112,VALID,0,VALID,96.4515,VALID,0,VALID,17.6767,VALID,135,VALID,0,
2010-09-11, 03:38:04,VALID,916.108,VALID,0,VALID,96.5353,VALID,0,VALID,17.6754,VALID,135,VALID,0,
2010-09-11, 03:39:04,VALID,916.076,VALID,0,VALID,96.5429,VALID,0,VALID,17.6767,VALID,135,VALID,0,
2010-09-11, 03:40:04,VALID,916.088,VALID,0,VALID,96.5887,VALID,0,VALID,17.6545,VALID,135,VALID,0,
2010-09-11, 03:41:04,VALID,916.072,VALID,0,VALID,96.5734,VALID,0,VALID,17.6559,VALID,135,VALID,0,
2010-09-11, 03:42:04,VALID,916.058,VALID,0,VALID,96.4819,VALID,0.107441,VALID,17.5974,VALID,135,VALID,0,
2010-09-11, 03:43:04,VALID,916.041,VALID,0,VALID,96.421,VALID,0,VALID,17.5792,VALID,135,VALID,0,
2010-09-11, 03:44:04,VALID,916.038,VALID,0,VALID,96.421,VALID,0,VALID,17.5584,VALID,135,VALID,0,
2010-09-11, 03:45:04,VALID,916.027,VALID,0,VALID,96.4515,VALID,0,VALID,17.5792,VALID,135,VALID,0,
2010-09-11, 03:46:04,VALID,916.055,VALID,0,VALID,96.7564,VALID,0,VALID,17.7157,VALID,135,VALID,0,